Weather History for Moab, UT

Change the Weather History Date:

Sunday, February 9, 2014

  Actual Average Record
Temperature  
Mean Temperature 41 °F 33 °F  
Max Temperature 51 °F 44 °F 65 °F (1954)
Min Temperature 31 °F 22 °F -10 °F (1929)
Degree Days  
Heating Degree Days 24 32  
Month to date heating degree days 301 297  
Since 1 July heating degree days 4344 3872  
Cooling Degree Days 0 0  
Month to date cooling degree days 0 0  
Year to date cooling degree days 0 0  
Moisture  
Dew Point 35 °F    
Average Humidity 78    
Maximum Humidity 100    
Minimum Humidity 56    
Precipitation  
Precipitation T in 0.02 in 0.42 in (1959)
Month to date precipitation 0.01 0.16  
Year to date precipitation 0.28 0.80  
Sea Level Pressure  
Sea Level Pressure 29.99 in    
Wind  
Wind Speed 4 mph (SSW)    
Max Wind Speed 18 mph    
Max Gust Speed 22 mph    
Visibility 10 miles    
Events Rain    
T = Trace of Precipitation, MM = Missing Value Source: NWS Daily Summary

Daily Weather History Graph

Daily Weather History Graph

Search for Another Location

Airport:

Trip Planner

Search our weather history database for the weather conditions in past years. The results will help you decide how hot, cold, wet, or windy it might be!

Date:

Astronomy

Feb. 09, 2014 Rise Set
Actual Time 7:16 AM MST 5:50 PM MST
Civil Twilight 6:49 AM MST 6:17 PM MST
Nautical Twilight 6:17 AM MST 6:49 PM MST
Astronomical Twilight 5:47 AM MST 7:20 PM MST
Moon 1:33 PM MST (2/9) 3:23 AM MST (2/9)
Length of Visible Light 11h 28m
Length of Day
10h 33m
Waxing Gibbous, 77% of the Moon is Illuminated
Feb 9
Waxing Gibbous
Feb 14
Full
Feb 22
Last Quarter
Mar 1
New
Mar 8
First Quarter

Hourly Weather History & Observations

Time (MST) Temp. Windchill Dew Point Humidity Pressure Visibility Wind Dir Wind Speed Gust Speed Precip Events Conditions
12:53 AM 39.9 °F - 34.0 °F 79% 29.99 in 10.0 mi Calm Calm - N/A   Overcast
1:53 AM 36.0 °F - 33.1 °F 89% 30.00 in 10.0 mi Calm Calm - N/A   Clear
2:53 AM 36.0 °F 31.1 °F 30.9 °F 82% 30.00 in 10.0 mi WSW 5.8 mph - N/A   Clear
3:53 AM 37.0 °F 33.3 °F 30.9 °F 79% 29.99 in 10.0 mi NNW 4.6 mph - N/A   Clear
4:53 AM 32.0 °F 26.4 °F 30.0 °F 92% 30.00 in 10.0 mi WSW 5.8 mph - N/A   Clear
5:53 AM 34.0 °F - 30.0 °F 85% 29.99 in 10.0 mi Calm Calm - N/A   Clear
6:53 AM 34.0 °F 29.8 °F 30.0 °F 85% 29.99 in 10.0 mi SW 4.6 mph - N/A   Clear
7:53 AM 34.0 °F - 30.9 °F 89% 30.01 in 10.0 mi Calm Calm - N/A   Clear
8:53 AM 42.1 °F - 33.1 °F 70% 30.00 in 10.0 mi Calm Calm - N/A   Clear
9:53 AM 45.0 °F 43.5 °F 35.1 °F 68% 29.97 in 10.0 mi ESE 3.5 mph - N/A   Clear
10:53 AM 46.9 °F - 34.0 °F 61% 29.97 in 10.0 mi Calm Calm - N/A   Overcast
11:53 AM 50.0 °F - 36.0 °F 59% 29.94 in 10.0 mi Calm Calm - N/A   Overcast
12:53 PM 50.0 °F - 39.9 °F 68% 29.93 in 10.0 mi SSW 16.1 mph - 0.00 in Rain Light Rain
1:53 PM 48.9 °F - 39.9 °F 71% 29.92 in 10.0 mi South 12.7 mph - 0.00 in   Overcast
2:53 PM 46.9 °F - 41.0 °F 80% 29.94 in 4.0 mi East 4.6 mph - 0.00 in Rain Light Rain
3:53 PM 48.0 °F - 42.1 °F 80% 29.93 in 10.0 mi NE 8.1 mph - 0.00 in   Overcast
4:53 PM 46.9 °F - 42.1 °F 83% 29.97 in 10.0 mi ENE 4.6 mph - 0.00 in   Mostly Cloudy
5:53 PM 45.0 °F 42.6 °F 39.9 °F 82% 29.99 in 10.0 mi SE 4.6 mph - N/A   Scattered Clouds
6:53 PM 42.1 °F - 39.0 °F 89% 30.02 in 10.0 mi Calm Calm - N/A   Scattered Clouds
7:53 PM 37.9 °F 35.5 °F 37.0 °F 97% 30.04 in 10.0 mi WSW 3.5 mph - N/A   Clear
8:53 PM 37.0 °F - 35.1 °F 93% 30.02 in 10.0 mi Calm Calm - N/A   Clear
9:53 PM 36.0 °F 33.3 °F 35.1 °F 97% 30.02 in 10.0 mi West 3.5 mph - N/A   Clear
10:53 PM 33.1 °F 30.0 °F 32.0 °F 96% 30.03 in 10.0 mi WSW 3.5 mph - N/A   Clear
11:53 PM 34.0 °F - 33.1 °F 96% 30.01 in 10.0 mi Calm Calm - N/A   Clear